EW3146 Weather Reports


time (UTC)temp
C
wind
direction
speed
KPH
gust
KPH
rain 1hr
cm
rain 24hr
cm
rain mn
cm
humidity
%
barometer
mb
20260503224814 18 22 3.2 14.5 0.00 0.00 0.00 30 1003.0
20260503223814 17 329 3.2 11.3 0.00 0.00 0.00 33 1003.2
20260503222813 18 17 3.2 11.3 0.00 0.00 0.00 29 1003.2
20260503221808 18 240 4.8 12.9 0.00 0.00 0.00 31 1003.4
20260503220807 18 344 4.8 17.7 0.00 0.00 0.00 29 1003.3
20260503215808 18 306 4.8 24.1 0.00 0.00 0.00 29 1003.4
20260503214809 18 12 6.4 16.1 0.00 0.00 0.00 29 1003.3
20260503213809 18 5 6.4 22.5 0.00 0.00 0.00 29 1003.4
20260503212808 18 286 4.8 19.3 0.00 0.00 0.00 30 1003.3
20260503211808 19 134 4.8 12.9 0.00 0.00 0.00 30 1003.5
20260503210805 19 5 4.8 17.7 0.00 0.00 0.00 30 1003.6
20260503205805 19 350 4.8 16.1 0.00 0.00 0.00 29 1003.7
20260503204806 18 321 4.8 16.1 0.00 0.00 0.00 31 1003.9
20260503202805 18 310 4.8 12.9 0.00 0.00 0.00 32 1004.1
20260503201806 19 5 4.8 16.1 0.00 0.00 0.00 30 1004.1
20260503200804 18 323 4.8 22.5 0.00 0.00 0.00 28 1004.2
20260503195804 19 297 4.8 12.9 0.00 0.00 0.00 30 1004.3
20260503194803 18 5 4.8 14.5 0.00 0.00 0.00 31 1004.3
20260503193803 18 312 4.8 12.9 0.00 0.00 0.00 34 1004.6
20260503192804 18 44 4.8 16.1 0.00 0.00 0.00 32 1004.8
20260503191805 18 171 4.8 17.7 0.00 0.00 0.00 29 1004.9
20260503184808 17 335 4.8 16.1 0.00 0.00 0.00 31 1005.0
20260503183757 17 22 4.8 16.1 0.00 0.00 0.00 31 1005.1
20260503182758 17 346 4.8 14.5 0.00 0.00 0.00 30 1005.3
20260503180758 18 277 4.8 14.5 0.00 0.00 0.00 28 1005.3
20260503175757 17 309 6.4 22.5 0.00 0.00 0.00 24 1005.6
20260503174758 17 355 4.8 11.3 0.00 0.00 0.00 26 1005.7
20260503171756 17 0 4.8 16.1 0.00 0.00 0.00 23 1005.8
20260503170754 17 338 4.8 16.1 0.00 0.00 0.00 28 1006.1
20260503150746 15 80 4.8 14.5 0.00 0.00 0.00 55 1006.1
20260503080736 7 182 0.0 0.0 0.00 0.00 0.00 75 1005.5
20260503071734 9 182 0.0 0.0 0.00 0.00 0.00 72 1006.0
20260503070735 10 182 0.0 3.2 0.00 0.00 0.00 70 1006.0
20260503054729 10 184 4.8 8.0 0.00 0.00 0.00 75 1006.8
20260503053728 10 200 3.2 4.8 0.00 0.00 0.00 75 1006.9
20260503052728 10 200 3.2 6.4 0.00 0.00 0.00 75 1006.9
20260503051729 10 201 1.6 4.8 0.00 0.00 0.00 75 1007.1
20260503050734 10 201 1.6 6.4 0.00 0.00 0.00 75 1007.1
20260503045729 10 210 1.6 4.8 0.00 0.00 0.00 76 1007.2
20260503043728 10 242 0.0 3.2 0.00 0.00 0.00 77 1007.6
20260503042729 10 242 0.0 4.8 0.00 0.00 0.00 76 1007.7
20260503041728 10 233 0.0 3.2 0.00 0.00 0.00 75 1007.8
20260503040727 10 233 0.0 3.2 0.00 0.00 0.00 75 1007.8
20260503033728 11 71 0.0 1.6 0.00 0.00 0.00 76 1007.9
20260503032728 11 67 0.0 3.2 0.00 0.00 0.00 75 1008.3
20260503031728 11 67 0.0 3.2 0.00 0.00 0.00 75 1008.4
20260503030726 11 67 1.6 4.8 0.00 0.00 0.00 73 1008.5
20260503025726 11 67 0.0 3.2 0.00 0.00 0.00 71 1008.9
20260503024723 12 59 1.6 6.4 0.00 0.00 0.00 68 1009.1
20260503023724 12 90 1.6 4.8 0.00 0.00 0.00 66 1009.3
20260503021726 13 351 1.6 6.4 0.00 0.00 0.00 58 1009.0
20260503015720 13 327 1.6 6.4 0.00 0.00 0.00 55 1008.9
20260503014717 13 42 1.6 4.8 0.00 0.00 0.00 53 1008.9
20260503013721 13 41 0.0 4.8 0.00 0.00 0.00 52 1008.8
20260503010719 15 314 3.2 11.3 0.00 0.00 0.00 46 1008.7
20260503005720 15 172 3.2 17.7 0.00 0.00 0.00 45 1008.5
20260503004717 15 231 3.2 17.7 0.00 0.00 0.00 44 1008.6
20260503003719 15 317 3.2 14.5 0.00 0.00 0.00 42 1008.6
20260503002719 16 295 3.2 19.3 0.00 0.00 0.00 40 1008.4
20260503000719 16 294 3.2 16.1 0.00 0.00 0.00 39 1008.5
20260502235715 16 291 4.8 16.1 0.00 0.00 0.00 39 1008.6
20260502233714 16 222 6.4 24.1 0.00 0.00 0.00 37 1008.6
20260502232715 16 252 6.4 16.1 0.00 0.00 0.00 39 1008.6
20260502230713 16 225 8.0 19.3 0.00 0.00 0.00 38 1008.9